This is the latest recevied weather packets stored in our database for station/object KB5DPX. If no packets are shown the sender has not sent any weather packets the latest 10 day(s).
| Time | Temp. | Humidity | Pressure | Rain* | Wind** | Luminosity | Snow |
|---|---|---|---|---|---|---|---|
| 1777991543 | 6.67° C | 76% | 1005.9 hPa | 0 mm | - | 726 W/m² | - |
| 1777991264 | 6.67° C | 77% | 1005.8 hPa | 0 mm | - | 717 W/m² | - |
| 1777990967 | 6.67° C | 77% | 1005.7 hPa | 0 mm | - | 714 W/m² | - |
| 1777990654 | 6.11° C | 78% | 1005.7 hPa | 0 mm | - | 756 W/m² | - |
| 1777990361 | 6.11° C | 80% | 1005.6 hPa | 0 mm | - | 796 W/m² | - |
| 1777990046 | 5.56° C | 80% | 1005.6 hPa | 0 mm | - | 429 W/m² | - |
| 1777989760 | 5.56° C | 80% | 1005.6 hPa | 0 mm | - | 383 W/m² | - |
| 1777989458 | 5.56° C | 81% | 1005.6 hPa | 0 mm | - | 408 W/m² | - |
| 1777989143 | 5° C | 81% | 1005.4 hPa | 0 mm | - | 336 W/m² | - |
| 1777988854 | 5° C | 81% | 1005.4 hPa | 0 mm | - | 279 W/m² | - |
| 1777988561 | 5° C | 81% | 1005.4 hPa | 0 mm | - | 241 W/m² | - |
| 1777988265 | 5° C | 81% | 1005.2 hPa | 0 mm | - | 239 W/m² | - |
| 1777987971 | 5° C | 81% | 1005.1 hPa | 0 mm | - | 232 W/m² | - |
| 1777987665 | 5° C | 80% | 1005 hPa | 0 mm | - | 227 W/m² | - |
| 1777987349 | 5° C | 80% | 1004.9 hPa | 0 mm | - | 206 W/m² | - |
| 1777987065 | 5° C | 80% | 1004.8 hPa | 0 mm | - | 181 W/m² | - |
| 1777986744 | 5° C | 79% | 1004.6 hPa | 0 mm | - | 176 W/m² | - |
| 1777986456 | 5.56° C | 80% | 1004.5 hPa | 0 mm | - | 165 W/m² | - |
| 1777986142 | 5.56° C | 79% | 1004.6 hPa | 0 mm | - | 160 W/m² | - |
| 1777985848 | 5.56° C | 79% | 1004.5 hPa | 0 mm | - | 176 W/m² | - |
| 1777985561 | 5.56° C | 79% | 1004.4 hPa | 0 mm | - | 178 W/m² | - |
| 1777985266 | 5.56° C | 79% | 1004.4 hPa | 0 mm | - | 188 W/m² | - |
| 1777984953 | 5.56° C | 79% | 1004.4 hPa | 0 mm | - | 181 W/m² | - |
| 1777984667 | 5.56° C | 79% | 1004.2 hPa | 0 mm | - | 183 W/m² | - |
| 1777984346 | 5.56° C | 78% | 1004.3 hPa | 0 mm | - | 185 W/m² | - |
* Rain latest hour (hover to see other rain measurements)
** Current wind speed in m/s (hover to see current wind gust speed)